Location: Sherrills_Ford_Terrell
(35.6000°N, 80.9830°W)
Time: 15:35:43
(UTC-04:00)

ISS - Visible Passes

Search period start: 17 September 2014 00:00
Search period end: 27 September 2014 00:00
Orbit: 414 x 417 km, 51.6° (Epoch: 17 September)

Date Brightness Start Highest point End Pass type
(mag) Time Alt. Az. Time Alt. Az. Time Alt. Az.
17 Sep -0.9 05:42:47 14° NNW 05:42:57 14° NNW 05:44:42 10° N visible
18 Sep -0.3 04:56:04 12° NNE 04:56:04 12° NNE 04:56:31 10° NNE visible
26 Sep -0.5 06:27:59 10° N 06:30:04 15° NNE 06:32:09 10° ENE visible
